Regional Weather Roundup
Issued by NWS

Home | Current Version | Previous Version | Graphics & Text | Print | Product List | Glossary On
Versions: 1 2 3 4 5 6 7 8 9 10 11 12 13 14 15 16 17 18 19 20 21 22 23 24 25 26 27 28
000
ASUS45 KTFX 220610
RWRMT
MONTANA REGIONAL WEATHER ROUNDUP
NATIONAL WEATHER SERVICE GREAT FALLS MT
1100 PM MST SAT JAN 21 2017

NOTE: "FAIR" INDICATES FEW OR NO CLOUDS BELOW 12000 FEET WITH NO
SIGNIFICANT WEATHER AND/OR OBSTRUCTIONS TO VISIBILITY.

MTZ001>007-043-220700-
WEST OF THE DIVIDE

CITY           SKY/WX    TMP DP  RH WIND       PRES   REMARKS
KALISPELL      CLOUDY    25  23  92 CALM      29.75R
MISSOULA       CLOUDY    24  23  96 CALM      29.77R
BUTTE          FLURRIES  14  10  84 CALM      29.73R
MULLAN PASS    CLOUDY    25  22  88 S6        29.63R WCI  18
ANACONDA         N/A     21  16  79 CALM      29.72R
DEER LODGE       N/A     21  18  86 W3        29.76R
EUREKA           N/A     25  23  93 CALM      29.77R
HAMILTON         N/A     19  18  93 CALM      29.75
PLAINS           N/A     24  20  85 CALM      29.78R
RONAN            N/A     24  21  88 CALM      29.79R
$$

MTZ008-052>055-220700-
SOUTHWEST MONTANA

CITY           SKY/WX    TMP DP  RH WIND       PRES   REMARKS
BOZEMAN        CLOUDY    20  16  84 S6        29.74R WCI  12
DILLON         CLOUDY   N/A N/A N/A S7        29.73R
W YELLOWSTONE  CLOUDY    23  19  86 SW16      29.75R WCI  10
ENNIS          CLOUDY    28  21  74 S12G17    29.78R WCI  18
TWIN BRIDGES     N/A     20  12  71 E6        29.76R WCI  12
$$

MTZ009-010-012-014-046-048-049-054-220700-
EAST SLOPES AND CENTRAL MONTANA

CITY           SKY/WX    TMP DP  RH WIND       PRES   REMARKS
CUT BANK       CLEAR     21  16  81 W7        29.70R WCI  12
GREAT FALLS    CLOUDY    26  21  81 SW8       29.69R WCI  18
MALMSTROM AFB  CLOUDY    26  23  89 SW6       29.71R WCI  19
HELENA         CLOUDY    13   9  84 S3        29.76R
AUGUSTA        MOCLDY    21  17  87 N7        29.67R WCI  12
BOWMANS CRNR   MOCLDY    24  18  77 S7        29.67R WCI  16
CHOTEAU          N/A     25  21  86 W5        29.71R
CONRAD           N/A     17  14  88 CALM      29.74R
POWER          CLOUDY    22  19  89 W9        29.68R WCI  12
RAYNESFORD     CLOUDY    22  18  83 CALM      29.70R
ULM            MOCLDY    24  20  83 MISG      29.70R
$$

MTZ011-013-016-021-045-047-050-051-220700-
NORTH CENTRAL MONTANA

CITY           SKY/WX    TMP DP  RH WIND       PRES   REMARKS
HAVRE          CLEAR     19  18  95 W7        29.70R WCI  10
LEWISTOWN      CLOUDY    23  17  78 CALM      29.68R
CHINOOK          N/A     27  27 100 W15       29.70R WCI  15
DENTON           N/A     21  19  90 S7        29.66R WCI  13
FORT BENTON      N/A     25  19  80 MISG      29.73R
GEYSER           N/A     25  19  78 W13       29.67R WCI  14
GRASS RANGE      N/A     28  21  74 W15       29.64R WCI  16
JUDITH GAP       N/A     23  14  68 NW6       29.66R WCI  16
ROY              N/A     25  21  85 MISG      29.66R
STANFORD         N/A     27  18  68 CALM      29.67R
WINIFRED         N/A     26  22  83 W9        29.67R WCI  17
$$

MTZ017>020-022>027-061-062-220700-
NORTHEAST MONTANA

CITY           SKY/WX    TMP DP  RH WIND       PRES   REMARKS
GLASGOW        CLOUDY    20  19  96 W9        29.66R FOG     WCI   9
JORDAN           N/A     22  19  89 W8        29.66R WCI  12
SIDNEY         CLOUDY    25  24  96 SW8       29.65R WCI  16
WOLF POINT     CLOUDY    17  13  84 W6        29.67R WCI   9
PLENTYWOOD       N/A     28  28 100 W10       29.60R WCI  19
POPLAR           N/A     19  19 100 SW10      29.65R VSB 0   WCI   8
SCOBEY           N/A     27  21  77 NW9       29.63R WCI  18
$$

MTZ028>42-056>058-220700-
SOUTHCENTRAL AND SOUTHEAST MONTANA

CITY           SKY/WX    TMP DP  RH WIND       PRES   REMARKS
BAKER          CLEAR     18  15  88 NW3       29.64R
BILLINGS       CLOUDY    29  19  66 SW16      29.70R WCI  17
LIVINGSTON     CLOUDY    32  19  58 W10       29.70R WCI  24
MILES CITY     CLEAR     15  12  88 W8        29.68R WCI   4
BIG TIMBER     CLOUDY    32  19  59 SW15      29.71R WCI  22
EKALAKA          N/A     23  19  85 CALM      29.65
FORSYTH          N/A     21  19  93 W3        29.69R
HARLOWTON        N/A     23  16  75 W15       29.68R WCI  10
LAUREL           N/A     25  16  68 SW6       29.71R WCI  18
$$

REGIONAL REPORTS...DAKOTAS

CITY           SKY/WX    TMP DP  RH WIND       PRES   REMARKS
WILLISTON      CLOUDY    30  28  92 W8        29.62R WCI  22
MINOT          CLOUDY    30  28  92 SW5       29.57R FOG
DICKINSON      CLEAR     19  15  84 W12       29.58R WCI   7
BEACH            N/A     23  21  93 W16       29.64R WCI  10
CROSBY         CLOUDY    28  28 100 W10       29.61R FOG     WCI  19
TIOGA          CLOUDY    28  28 100 NW16      29.59R WCI  17
WATFORD CITY   CLOUDY    23  21  93 SW8       29.62R WCI  14
BISMARCK       FOG       15  14  95 CALM      29.62R VSB 1/4
GRAND FORKS    FOG       34  32  92 CALM      29.58R VSB 1/2
FARGO          FOG       36  34  92 CALM      29.58R VSB 1/4
BUFFALO SD       N/A     22  19  89 W12       29.56R WCI  10
RAPID CITY     CLOUDY    26  20  77 NW7       29.65R WCI  18
$$

REGIONAL REPORTS...WYOMING/IDAHO/WASHINGTON

CITY           SKY/WX    TMP DP  RH WIND       PRES   REMARKS
GILLETTE       CLEAR     27  23  85 W10       29.66R WCI  17
SHERIDAN       CLOUDY    25  19  78 SW7       29.68R WCI  17
BUFFALO WY     CLOUDY    30  15  53 W3        29.67R
CODY           CLOUDY    23  18  81 S5        29.71R
YELLOWSTONE LA   N/A     18  15  88 VRB3      29.75R
IDAHO FALLS    CLEAR     26  23  88 SW15G22   29.84R WCI  14
SALMON         CLOUDY     9   7  92 N5        29.82R
BOISE          PTCLDY    37  30  75 SE10      29.80R WCI  30
SPOKANE        LGT RAIN  35  32  88 E3        29.68R
$$

REGIONAL REPORTS...ALBERTA

CITY           SKY/WX    TMP DP  RH WIND       PRES   REMARKS
EDMONTON       CLOUDY    21  16  79 N6        29.82R WCI  14
CALGARY        CLOUDY    27  21  80 N10       29.72R WCI  17
LETHBRIDGE     CLEAR     23 N/A N/A NW6       29.72R WCI  16
MEDICINE HAT   CLOUDY    30  28  93 N6        29.71R FOG     WCI  24
WATERTON GATE    N/A     27  21  80 SW2         N/A
CARDSTON         N/A     27  21  80 W3          N/A
MILK RIVER       N/A     25  21  86 NW12        N/A  WCI  14
ONEFOUR          N/A     27  25  93 NW21        N/A  WCI  13
$$

REGIONAL REPORTS...SASKATCHEWAN

CITY           SKY/WX    TMP DP  RH WIND       PRES   REMARKS
SWIFT CURRENT  LGT SNOW  27  27 100 NW17G23   29.60R WCI  14
REGINA         FLURRIES  25  23  93 NW10      29.59R WCI  15
SASKATOON      FLURRIES  27  25  93 N3        29.64R
CYPRESS HILLS    N/A     21  19  93 NW9         N/A  WCI  11
VAL MARIE        N/A     27  25  93 N12         N/A  WCI  16
ROCKGLEN         N/A     25  25 100 NW9         N/A  WCI  15
ASSINIBOIA       N/A     21  21 100 N9          N/A  WCI  11
$$




USA.gov is the U.S. government's official web portal to all federal, state and local government web resources and services.